When you browse on this site, cookies collect data to enhance your experience and personalize the content and advertising you see.
Visit our Privacy Policy to learn more. By continuing to use the site, you agree to this use of cookies and data.
  • In Czech Republic
  • List of Countries
  • For 7 days
  • Water Temperature
  • Weather Map
  • Weather Widgets
  • user-avatar
    Login

    Hourly Weather Ivanovskoe-3

    Today, 24 February, Monday

    Time Temperature Precipitation Wind Pressure Humidity
    00:00 -4°C° 0 mm 5 mps 731 mmHg 89%
    01:00 -4°C° 0 mm 5 mps 731 mmHg 90%
    02:00 -4°C° 0 mm 5 mps 731 mmHg 91%
    03:00 -5°C° 0 mm 5 mps 730 mmHg 91%
    04:00 -4°C° 0 mm 4 mps 730 mmHg 92%
    05:00 -5°C° 0 mm 4 mps 729 mmHg 93%
    06:00 -5°C° 0 mm 4 mps 729 mmHg 93%
    07:00 -5°C° 0 mm 3 mps 730 mmHg 92%
    08:00 -4°C° 0 mm 3 mps 730 mmHg 92%
    09:00 -4°C° 0 mm 3 mps 729 mmHg 92%
    10:00 -2°C° 0 mm 3 mps 729 mmHg 93%
    11:00 -1°C° 0 mm 2 mps 729 mmHg 93%
    12:00 -1°C° 0 mm 2 mps 729 mmHg 94%
    13:00 +1°C° 0 mm 1 mps 729 mmHg 95%
    14:00 +1°C° 0 mm 0 mps 729 mmHg 96%
    15:00 +1°C° 0 mm 1 mps 729 mmHg 96%
    16:00 0°C° 0 mm 1 mps 729 mmHg 95%
    17:00 0°C° 0 mm 1 mps 729 mmHg 94%
    18:00 0°C° 0 mm 1 mps 729 mmHg 93%
    19:00 -2°C° 0 mm 2 mps 729 mmHg 92%
    20:00 -2°C° 0 mm 2 mps 730 mmHg 92%
    21:00 -2°C° 0 mm 3 mps 730 mmHg 91%
    22:00 -2°C° 0 mm 3 mps 730 mmHg 90%
    23:00 -3°C° 0 mm 4 mps 730 mmHg 90%

    Tomorrow, 25 February, Tuesday

    Time Temperature Precipitation Wind Pressure Humidity
    00:00 -3°C° 0 mm 4 mps 730 mmHg 90%
    01:00 -4°C° 0 mm 5 mps 731 mmHg 90%
    02:00 -4°C° 0 mm 6 mps 731 mmHg 90%
    03:00 -5°C° 0 mm 6 mps 731 mmHg 88%
    04:00 -6°C° 0 mm 6 mps 732 mmHg 86%
    05:00 -6°C° 0 mm 6 mps 732 mmHg 85%
    06:00 -6°C° 0 mm 6 mps 732 mmHg 85%
    07:00 -6°C° 0 mm 6 mps 733 mmHg 85%
    08:00 -6°C° 0 mm 6 mps 734 mmHg 85%
    09:00 -5°C° 0 mm 6 mps 734 mmHg 83%
    10:00 -4°C° 0 mm 6 mps 734 mmHg 80%
    11:00 -4°C° 0 mm 6 mps 734 mmHg 77%
    12:00 -2°C° 0 mm 5 mps 734 mmHg 75%
    13:00 -2°C° 0 mm 5 mps 734 mmHg 74%
    14:00 -2°C° 0 mm 5 mps 734 mmHg 72%
    15:00 -3°C° 0 mm 4 mps 734 mmHg 74%
    16:00 -3°C° 0 mm 4 mps 734 mmHg 76%
    17:00 -4°C° 0 mm 3 mps 734 mmHg 77%
    18:00 -5°C° 0 mm 3 mps 735 mmHg 79%
    19:00 -5°C° 0 mm 3 mps 735 mmHg 81%
    20:00 -5°C° 0 mm 3 mps 735 mmHg 83%
    21:00 -5°C° 0 mm 3 mps 734 mmHg 85%
    22:00 -5°C° 0 mm 4 mps 734 mmHg 87%
    23:00 -5°C° 0 mm 4 mps 734 mmHg 89%

    Day after tomorrow, 26 February, Wednesday

    Time Temperature Precipitation Wind Pressure Humidity
    00:00 -5°C° 0 mm 4 mps 733 mmHg 90%
    01:00 -6°C° 0 mm 5 mps 733 mmHg 91%
    02:00 -6°C° 0 mm 5 mps 733 mmHg 93%
    03:00 -5°C° 0.1 mm 5 mps 732 mmHg 93%
    04:00 -5°C° 0.1 mm 5 mps 731 mmHg 94%
    05:00 -4°C° 0.1 mm 6 mps 731 mmHg 94%
    06:00 -3°C° 0.1 mm 6 mps 730 mmHg 95%
    07:00 -2°C° 0.1 mm 6 mps 730 mmHg 95%
    08:00 -2°C° 0.1 mm 6 mps 730 mmHg 96%
    09:00 -1°C° 0 mm 6 mps 730 mmHg 97%
    10:00 -1°C° 0 mm 6 mps 729 mmHg 97%
    11:00 -1°C° 0 mm 6 mps 729 mmHg 98%
    12:00 -1°C° 0.3 mm 6 mps 729 mmHg 98%
    13:00 -1°C° 0.3 mm 6 mps 729 mmHg 98%
    14:00 -1°C° 0.3 mm 6 mps 729 mmHg 98%
    15:00 0°C° 0.1 mm 5 mps 729 mmHg 97%
    16:00 0°C° 0.1 mm 5 mps 729 mmHg 97%
    17:00 0°C° 0.1 mm 5 mps 729 mmHg 97%
    18:00 0°C° 0 mm 4 mps 730 mmHg 97%
    19:00 -1°C° 0 mm 4 mps 730 mmHg 97%
    20:00 0°C° 0 mm 3 mps 731 mmHg 97%
    21:00 0°C° 0 mm 3 mps 731 mmHg 97%
    22:00 +1°C° 0 mm 2 mps 731 mmHg 97%
    23:00 +1°C° 0 mm 2 mps 731 mmHg 97%

    27 February, Thursday

    Time Temperature Precipitation Wind Pressure Humidity
    00:00 +1°C° 0.2 mm 2 mps 731 mmHg 97%
    01:00 +2°C° 0.2 mm 1 mps 731 mmHg 97%
    02:00 +2°C° 0.2 mm 1 mps 731 mmHg 97%
    03:00 +1°C° 0.3 mm 2 mps 731 mmHg 98%
    04:00 +1°C° 0.3 mm 2 mps 731 mmHg 98%
    05:00 0°C° 0.3 mm 3 mps 731 mmHg 99%
    06:00 0°C° 0.1 mm 3 mps 730 mmHg 98%
    07:00 -1°C° 0.1 mm 4 mps 730 mmHg 98%
    08:00 -1°C° 0.1 mm 4 mps 730 mmHg 98%
    09:00 0°C° 0.1 mm 5 mps 730 mmHg 98%
    10:00 0°C° 0.1 mm 5 mps 729 mmHg 98%
    11:00 0°C° 0.1 mm 5 mps 729 mmHg 99%
    12:00 -1°C° 0 mm 6 mps 729 mmHg 98%
    13:00 -1°C° 0 mm 6 mps 729 mmHg 98%
    14:00 -1°C° 0 mm 7 mps 728 mmHg 98%
    15:00 -1°C° 0.2 mm 6 mps 728 mmHg 98%
    16:00 -1°C° 0.2 mm 6 mps 728 mmHg 98%
    17:00 0°C° 0.2 mm 5 mps 728 mmHg 97%
    18:00 +1°C° 0.1 mm 5 mps 728 mmHg 98%
    19:00 +1°C° 0.1 mm 4 mps 728 mmHg 98%
    20:00 +1°C° 0.1 mm 4 mps 729 mmHg 98%
    21:00 +1°C° 0 mm 4 mps 729 mmHg 98%
    22:00 +1°C° 0 mm 3 mps 729 mmHg 98%
    23:00 +1°C° 0 mm 3 mps 729 mmHg 98%

    28 February, Friday

    Time Temperature Precipitation Wind Pressure Humidity
    00:00 +2°C° 0 mm 2 mps 729 mmHg 98%
    01:00 +1°C° 0 mm 2 mps 729 mmHg 97%
    02:00 +2°C° 0 mm 1 mps 729 mmHg 97%
    03:00 +1°C° 0.8 mm 2 mps 728 mmHg 97%
    04:00 -1°C° 0.8 mm 2 mps 728 mmHg 98%
    05:00 -1°C° 0.8 mm 3 mps 728 mmHg 98%
    06:00 -1°C° 0.9 mm 3 mps 728 mmHg 98%
    07:00 -1°C° 0.9 mm 3 mps 728 mmHg 97%
    08:00 -1°C° 0.9 mm 3 mps 728 mmHg 97%
    09:00 -1°C° 0.6 mm 3 mps 728 mmHg 97%
    10:00 -2°C° 0.6 mm 4 mps 727 mmHg 97%
    11:00 -2°C° 0.6 mm 4 mps 727 mmHg 97%
    12:00 -2°C° 0.6 mm 4 mps 727 mmHg 97%
    13:00 -2°C° 0.6 mm 5 mps 728 mmHg 96%
    14:00 -4°C° 0.6 mm 5 mps 728 mmHg 95%
    15:00 -3°C° 0.2 mm 4 mps 728 mmHg 93%
    16:00 -3°C° 0.2 mm 4 mps 728 mmHg 91%
    17:00 -4°C° 0.2 mm 4 mps 729 mmHg 88%
    18:00 -4°C° 0 mm 4 mps 729 mmHg 87%
    19:00 -5°C° 0 mm 4 mps 729 mmHg 86%
    20:00 -5°C° 0 mm 4 mps 730 mmHg 85%
    21:00 -6°C° 0 mm 3 mps 730 mmHg 84%
    22:00 -6°C° 0 mm 3 mps 731 mmHg 83%
    23:00 -7°C° 0 mm 3 mps 731 mmHg 81%

    29 February, Saturday

    Time Temperature Precipitation Wind Pressure Humidity
    00:00 -7°C° 0 mm 3 mps 731 mmHg 82%
    01:00 -7°C° 0 mm 3 mps 731 mmHg 83%
    02:00 -7°C° 0 mm 3 mps 731 mmHg 83%
    03:00 -7°C° 0 mm 3 mps 731 mmHg 83%
    04:00 -7°C° 0 mm 3 mps 731 mmHg 83%
    05:00 -7°C° 0 mm 3 mps 731 mmHg 82%
    06:00 -7°C° 0 mm 4 mps 731 mmHg 82%
    07:00 -7°C° 0 mm 4 mps 731 mmHg 82%
    08:00 -6°C° 0 mm 5 mps 731 mmHg 82%
    09:00 -6°C° 0.1 mm 5 mps 731 mmHg 85%
    10:00 -5°C° 0.1 mm 5 mps 731 mmHg 89%
    11:00 -5°C° 0.1 mm 6 mps 731 mmHg 93%
    12:00 -4°C° 0.2 mm 6 mps 731 mmHg 94%
    13:00 -3°C° 0.2 mm 6 mps 730 mmHg 95%
    14:00 -3°C° 0.2 mm 6 mps 730 mmHg 96%
    15:00 -2°C° 0.1 mm 5 mps 730 mmHg 96%
    16:00 -2°C° 0.1 mm 5 mps 730 mmHg 97%
    17:00 -2°C° 0.1 mm 5 mps 730 mmHg 97%
    18:00 -2°C° 0 mm 5 mps 731 mmHg 96%
    19:00 -2°C° 0 mm 5 mps 731 mmHg 96%
    20:00 -2°C° 0 mm 5 mps 731 mmHg 95%
    21:00 -2°C° 0.1 mm 4 mps 731 mmHg 96%
    22:00 -2°C° 0.1 mm 4 mps 731 mmHg 96%
    23:00 -2°C° 0.1 mm 4 mps 731 mmHg 97%
    Show more